Location: Contre
(49.7477°N, 2.0963°E)
Time: 14:30:26
(UTC+00:00)

Meteor 2-12 Rocket - Pass Details

Date: 12 August 2024
Orbit: 936 x 956 km, 82.5° (Epoch: 14 September)

Event Time Altitude Azimuth Distance (km) Brightness Sun altitude
Rises 23:39:08 0° 353° (N) 3,614 8.9 -25.6°
Reaches altitude 10° 23:41:44 10° 359° (N) 2,668 7.8 -25.6°
Maximum altitude 23:47:37 48° 73° (ENE) 1,213 5.0 -25.6°
Enters shadow 23:49:14 39° 115° (ESE) 1,380 5.0 -25.7°
